STARLINK-1710 (46330 NORAD) Tracking and Keplerian Element Data

This shows tracking and keplerian element data for the satellite.

Feedback or suggestion? Click here.




ElementValue
Catalog46330
NameSTARLINK-1710
Epoch Orbit185
Epoch Day336.91667824
Epoch Year2020
RAAN353.444
Inclination52.9974
Eccentricity0.0001377
Argument of Perigee79.6147
Mean Anonmoly71.8683
Mean Motion15.29152187
Decay Rate-0.01068028
L11 46330U 20062F 20336.91667824 -.01068028 00000-0 -40623-1 0 9996
L22 46330 52.9974 353.4440 0001377 79.6147 71.8683 15.29152187 1857

Live tracking and technical data element details for STARLINK-1710 (NORAD 46330). STARLINK-1710 can be tracked NOW for your location showing map with azimuth and elevation plus other details from your city location.

Track the satellite on the map from your city or location and see movement details for azimuth, elevation, latitude, longitude, range, height, and movement on the map or in text.







IsCatalogInMostPopularTable: catalog: 46330, numindb: 21
Update: records affected: 1



GetName: 46330 STARLINK-1710

Hit Count: updated at: Wed, 02 Dec 2020 07:05:14 GMT